#timestamp,LO_Frequency,Hit,StdDev 
1656273615.7,286047001.2,N
1656273635.5,286046998.6,N
1656273655.3,286046998.3,N
1656273675.2,286046998.9,N
1656273695.0,286046999.0,N
1656273695.9,286046999.0,N
1656273715.8,286046998.3,N
1656273735.6,286046998.5,N
1656273755.4,286046998.9,N
1656273775.3,286046998.1,N
1656273795.1,286047000.3,N
1656273815.8,286047001.0,N
1656273835.7,286047000.9,N
1656273855.5,286046998.6,N
1656273875.4,286046998.6,N
1656273895.2,286046999.3,N
1656273915.0,286046999.5,N
1656273915.9,286046999.5,N
1656273935.8,286046999.3,N
1656273955.6,286046998.3,N
1656273975.5,286046998.8,N
1656273995.3,286046997.7,N
1656274015.1,286046996.7,N
1656274035.9,286046996.6,N
1656274055.7,286046999.4,N
1656274075.5,286046996.7,N
1656274095.4,286046999.1,N
1656274115.2,286046997.4,N
1656274135.1,286046999.6,N
1656274136.0,286046999.6,N
1656274155.8,286046998.4,N
1656274175.6,286046998.1,N
1656274195.5,286046998.1,N
1656274215.3,286046998.2,N
1656274235.1,286047000.8,N
1656274255.9,286047001.0,N
1656274275.7,286046998.4,N
1656274295.6,286046996.6,N
1656274315.4,286046999.0,N
1656274335.2,286046999.5,N
1656274355.1,286046996.9,N
1656274356.0,286046996.9,N
1656274375.8,286046997.0,N
1656274395.6,286046999.2,N
1656274415.5,286046999.0,N
1656274435.3,286046999.6,N
1656274455.2,286046999.1,N
1656274475.9,286046996.5,N
1656274495.7,286046999.0,N
1656274515.6,286046999.3,N
1656274535.4,286046999.3,N
1656274555.2,286047000.8,N
1656274575.1,286047000.3,N
1656274576.0,286047000.3,N
1656274595.8,286046998.1,N
1656274615.7,286047000.8,N
1656274635.5,286046998.3,N
1656274655.3,286046996.5,N
1656274675.2,286046998.6,N
1656274695.0,286046998.8,N
1656274695.9,286046998.8,N
1656274715.8,286046998.7,N
1656274735.6,286046998.8,N
1656274755.4,286046998.2,N
1656274775.3,286046998.3,N
1656274795.1,286046998.6,N
1656274815.8,286046999.5,N
1656274835.7,286046999.4,N
1656274855.5,286046999.6,N
1656274875.4,286046998.5,N
1656274895.2,286046998.9,N
1656274915.0,286046996.9,N
1656274915.9,286046996.9,N
1656274935.8,286046997.0,N
1656274955.6,286046997.2,N
1656274975.4,286046997.1,N
1656274995.3,286046996.8,N
1656275015.1,286046996.5,N
1656275035.9,286046999.6,N
1656275055.7,286046999.0,N
1656275075.5,286046998.1,N
1656275095.4,286046998.9,N
1656275115.2,286046997.0,N
1656275135.1,286046999.3,N
1656275136.0,286046999.3,N
1656275155.8,286046996.5,Y
1656275175.6,286046998.5,P
1656275195.5,286046998.1,P
1656275215.3,286047000.5,N
1656275235.1,286047000.1,N
1656275255.9,286047000.4,N
1656275275.7,286046998.4,N
1656275295.6,286046998.9,N
1656275315.4,286046999.0,N
1656275335.2,286046999.0,N
1656275355.1,286046998.6,N
1656275356.0,286046998.6,N
1656275375.8,286046999.3,N
1656275395.6,286046998.8,N
1656275415.5,286046998.7,N
1656275435.3,286046998.3,N
1656275455.2,286047000.7,N
1656275475.9,286046999.0,N
1656275495.7,286046999.3,N
1656275515.6,286046998.8,N
1656275535.4,286046999.2,N
1656275555.2,286046999.2,N
1656275575.1,286046999.5,N
1656275576.0,286046999.5,N
1656275595.8,286046996.9,Y
1656275615.7,286046999.1,P
1656275635.5,286046999.0,P
1656275655.3,286046999.2,P
1656275675.2,286046999.6,Y
1656275695.0,286046998.7,P
1656275695.9,286046998.7,P
1656275715.8,286046999.4,P
1656275735.6,286046999.1,Y
1656275755.4,286047000.1,P
1656275775.3,286046999.8,N
1656275795.1,286047002.8,P
1656275815.9,286047002.6,N
1656275835.7,286046999.7,N
1656275855.5,286046999.8,N
1656275875.4,286047000.1,N
1656275895.2,286047000.3,N
1656275915.1,286047000.5,N
1656275916.0,286047000.5,N
1656275935.8,286047000.9,N
1656275955.6,286047000.1,N
1656275975.5,286046999.9,N
1656275995.3,286046999.9,N
1656276015.1,286046999.8,N
1656276035.9,286047000.1,N
1656276055.7,286047000.2,N
1656276075.6,286047000.9,N
1656276095.4,286046998.5,N
1656276115.2,286047001.1,N
1656276135.1,286046999.3,N
1656276136.0,286046999.3,N
1656276155.8,286046998.6,N
1656276175.6,286047000.4,N
1656276195.5,286047000.0,N
1656276215.3,286047000.2,N
1656276235.2,286047002.7,N
1656276255.9,286047002.8,N
1656276275.7,286047002.4,N
1656276295.6,286047001.6,N
1656276315.4,286047004.4,Y
1656276335.2,286047002.1,P
1656276355.1,286047002.3,N
1656276356.0,286047002.3,N
1656276375.8,286047001.6,N
1656276395.7,286047001.5,N
1656276415.5,286047001.5,N
1656276435.3,286047002.3,Y
1656276455.2,286047000.4,P
1656276475.0,286046999.9,N
1656276475.9,286046999.9,N
1656276495.8,286047002.6,Y
1656276515.6,286047002.6,P
1656276535.4,286047002.6,N
1656276555.3,286047002.1,N
1656276575.1,286047002.5,N
1656276595.9,286047002.6,Y
1656276615.7,286047001.0,P
1656276635.5,286047000.9,N
1656276655.4,286046999.9,N
1656276675.2,286047004.5,Y
1656276695.0,286047007.1,P
1656276695.9,286047007.1,N
1656276715.8,286047005.6,N
1656276735.6,286047003.1,N
1656276755.5,286047003.7,N
1656276775.3,286047004.0,N
1656276795.1,286047002.1,N
1656276815.9,286047002.8,N
1656276835.7,286047002.7,N
1656276855.5,286047008.8,Y
1656276875.4,286047010.2,P
1656276895.2,286047008.8,N
1656276915.1,286047007.2,N
1656276916.0,286047007.2,Y
1656276935.8,286046997.7,P
1656276955.7,286046993.4,N
1656276975.5,286046993.5,N
1656276995.3,286046993.9,N
1656277015.2,286046992.2,N
1656277035.0,286046994.8,N
1656277035.9,286046994.8,N
1656277055.7,286046993.0,N
1656277075.6,286046993.1,N
1656277095.4,286046993.0,N
1656277115.3,286046992.8,N
1656277135.1,286046993.0,N
1656277136.0,286046993.0,N
1656277155.8,286046992.0,N
1656277175.7,286046990.7,N
1656277195.5,286046997.0,N
